Terminal Aerodrome Forecast
Issued by NWS Jacksonville, FL

Home | Current Version | Previous Version | Text Only | Print | Product List | Glossary On
Versions: 1 2 3 4 5 6 7 8 9 10 11 12 13 14 15 16 17 18 19 20 21 22 23 24 25 26 27 28 29 30 31
946
FTUS42 KJAX 241720
TAFGNV
TAF
KGNV 241720Z 2418/2518 24012KT P6SM BKN045
     FM250000 24006KT P6SM SCT100
     FM251400 27010KT P6SM FEW250=

USA.gov is the U.S. government's official web portal to all federal, state and local government web resources and services.